Location: The Stocker AstroScience Center
(25.7579°N, 80.3725°W)
Time: 18:05:05
(UTC-04:00)

ISS - All Passes

Search period start: 25 October 2014 00:00
Search period end: 03 November 2014 23:00
Orbit: 412 x 416 km, 51.6° (Epoch: 25 October)

Date Brightness Start Highest point End Pass type
(mag) Time Alt. Az. Time Alt. Az. Time Alt. Az.
25 Oct - 12:18:22 10° SW 12:21:36 53° NW 12:24:52 10° NNE daylight
25 Oct - 20:29:52 10° NNW 20:33:01 39° NE 20:36:10 10° ESE visible
26 Oct - 11:29:10 10° SSW 11:32:27 64° SE 11:35:44 10° NE daylight
26 Oct - 19:41:12 10° N 19:43:45 20° NE 19:46:17 10° E visible
26 Oct - 21:17:44 10° WNW 21:20:20 21° SW 21:22:54 10° S visible
27 Oct - 10:40:27 10° S 10:43:19 27° SE 10:46:11 10° ENE daylight
27 Oct - 12:17:49 10° W 12:19:59 16° NW 12:22:09 10° N daylight
27 Oct - 18:53:19 10° NNE 18:54:21 11° NE 18:55:24 10° ENE daylight
27 Oct - 20:27:59 10° NW 20:31:12 46° SW 20:34:24 10° SSE visible
28 Oct - 09:52:35 10° SSE 09:54:12 13° SE 09:55:49 10° E daylight
28 Oct - 11:27:39 10° WSW 11:30:37 30° NW 11:33:36 10° NNE daylight
28 Oct - 19:38:40 10° NW 19:41:59 73° NE 19:45:17 10° SE visible
29 Oct - 10:38:02 10° SW 10:41:19 67° NW 10:44:37 10° NE daylight
29 Oct - 18:49:38 10° NNW 18:52:40 32° NE 18:55:41 10° ESE daylight
29 Oct - 20:27:39 10° W 20:29:04 12° SW 20:30:28 10° SSW visible
30 Oct - 09:48:50 10° SSW 09:52:02 50° SE 09:55:16 10° NE daylight
30 Oct - 11:28:15 10° NW 11:28:54 10° NW 11:29:33 10° NNW daylight
30 Oct - 18:00:58 10° N 18:03:15 17° NE 18:05:31 10° E daylight
30 Oct - 19:37:04 10° WNW 19:39:53 26° SW 19:42:41 10° S visible
31 Oct - 09:00:09 10° S 09:02:48 22° SE 09:05:27 10° ENE daylight
31 Oct - 10:36:57 10° W 10:39:23 19° NW 10:41:50 10° N daylight
31 Oct - 18:47:20 10° NW 18:50:37 59° SW 18:53:52 10° SSE daylight
01 Nov - 08:12:52 10° SE 08:13:34 11° SE 08:14:17 10° ESE daylight
01 Nov - 09:46:50 10° WSW 09:49:55 36° NW 09:53:01 10° NNE daylight
01 Nov - 17:57:59 10° NNW 18:01:15 57° NE 18:04:31 10° SE daylight
02 Nov - 07:57:12 10° SW 08:00:30 85° NW 08:03:49 10° NE daylight
02 Nov - 16:08:55 10° NNW 16:11:47 27° NE 16:14:39 10° ESE daylight
02 Nov - 17:46:15 10° W 17:48:14 15° SW 17:50:13 10° SSW daylight
03 Nov - 07:08:01 10° SSW 07:11:07 39° SE 07:14:15 10° ENE daylight
03 Nov - 08:46:27 10° WNW 08:47:54 12° NW 08:49:21 10° NNW daylight
03 Nov - 15:20:18 10° N 15:22:13 14° NE 15:24:07 10° ENE daylight
03 Nov - 16:55:55 10° WNW 16:58:55 32° SW 17:01:54 10° SSE daylight
